Tracking 25734 objects as of 27-May-2022
HD Live streaming from Space Station
objects crossing your sky now

GB 1

Track GB 1 now!
10-day predictions
GB 1 is classified as:


NORAD ID: 14143
Int'l Code: 1983-056C
Perigee: 391.4 km
Apogee: 1,709.2 km
Inclination: 63.3 °
Period: 106.0 minutes
Semi major axis: 7421 km
RCS: Unknown
Launch date: June 9, 1983
Source: United States (US)
Launch site: AIR FORCE WESTERN TEST RANGE (AFWTR)
aabbcc
Your satellite tracking list
Your tracking list is empty




NASA's NSSDC Master Catalog

Two Line Element Set (TLE):
1 14143U 83056C   22146.77437726  .00008230  00000-0  66068-3 0  9995
2 14143  63.3004 325.3331 0887860 105.4018 264.6786 13.57937140143699
Source of the keplerian elements: McCants